Back to catalog

STARLINK-38294

AliveCommunicationsSSO
NORAD 100319·PAYLOAD·🇺🇸 United States

Launched Aug 12, 2026 from Vandenberg Space Force Base

Loading…

Next Passes (next 24 hours)

TLE

FreshSource: Space-Track

Epoch: Sep 14, 2026, 20:03 UTC

1 A0319U 26184U   26257.83569096  .00022826  00000-0  63203-3 0  9999
2 A0319  97.2838 123.0556 0001370  94.6746 265.4655 15.36985960  6495

Track STARLINK-38294 in real time with AllMySat

Download on the App Store